Location: Home
(42.5358°N, 72.7383°W)
Time: 04:27:58
(UTC-04:00)

Vanguard 1 - Pass Details

Date: 04 June 2022
Orbit: 649 x 3832 km, 34.2° (Epoch: 24 June)

Event Time Altitude Azimuth Distance (km) Brightness Sun altitude
Rises 01:32:21 0° 254° (WSW) 4,607 13.3 -24.3°
Reaches altitude 10° 01:34:52 10° 251° (WSW) 3,931 12.8 -24.2°
Maximum altitude 01:45:47 62° 174° (S) 2,725 11.9 -23.7°
Drops below altitude 10° 02:05:21 10° 100° (E) 6,624 14.4 -22.7°
Sets 02:11:09 0° 98° (E) 7,865 14.8 -22.3°
